Regional Weather Roundup
Issued by NWS

Home | Current Version | Previous Version | Graphics & Text | Print | Product List | Glossary On
Versions: 1 2 3 4 5 6 7 8 9 10 11 12 13 14 15 16 17 18 19 20 21 22 23 24 25 26 27 28 29 30 31 32 33 34 35 36 37 38 39 40 41 42 43 44 45 46 47 48 49 50
000
ASUS43 KMKX 172100
RWRWI

WISCONSIN REGIONAL WEATHER ROUNDUP
NATIONAL WEATHER SERVICE MILWAUKEE/SULLIVAN WI
300 PM CST WED DEC 17 2014

NOTE: "FAIR" INDICATES FEW OR NO CLOUDS BELOW 12,000 FEET WITH NO
SIGNIFICANT WEATHER AND/OR OBSTRUCTIONS TO VISIBILITY.

WIZ001-002-006>008-014>016-023>028-172200-
NORTHWEST WISCONSIN

CITY           SKY/WX    TMP DP  RH WIND       PRES   REMARKS
SUPERIOR ARPT  PTCLDY    21  12  68 CALM      30.30S
ASHLAND        LGT SNOW  24  19  81 NW7       30.26R WCI  16
HAYWARD        LGT SNOW  19  11  70 NW3       30.25S
SIREN          FLURRIES  18  10  69 N6        30.29R WCI  10
CUMBERLAND     CLOUDY    18  10  73 NW8       30.25S WCI   7
RICE LAKE      CLOUDY    19  10  67 W6        30.28S WCI  11
CHETEK         PTSUNNY   18  10  68 CALM      30.27R
LADYSMITH      MOCLDY    21  12  66 NW6       30.25R WCI  14
EAU CLAIRE     NOT AVBL
MENOMONIE      FLURRIES  19  12  72 W8        30.28S WCI   9
NEW RICHMOND   FLURRIES  17  11  78 N7        30.29S WCI   7
OSCEOLA        PTSUNNY   17  10  73 NW7       30.32S WCI   8
$$

WIZ003>005-009-010-017-018-172200-
NORTH CENTRAL WISCONSIN

CITY           SKY/WX    TMP DP  RH WIND       PRES   REMARKS
MANITOWISH WTR CLOUDY    19  17  90 NW9       30.15R WCI   8
ARBOR VITAE    CLOUDY    22  17  83 NW9       30.15R WCI  11
WOODRUFF       CLOUDY    22  17  83 NW9       30.15R WCI  11
RHINELANDER    CLOUDY    20  14  77 NW10      30.14R WCI   9
EAGLE RIVER    CLOUDY    21  17  82 NW7       30.12R WCI  13
LAND O LAKES   CLOUDY    24  19  84 N10       30.13R WCI  13
PHILLIPS       FLURRIES  19  13  75 NW8       30.18R WCI   9
TOMAHAWK       CLOUDY    21  14  73 NW9       30.17R WCI  11
MEDFORD        CLOUDY    18  10  71 W10       30.19R WCI   6
MERRILL        CLOUDY    22  13  67 N7        30.17R WCI  14
$$

WIZ029-030-035-036-043>047-172200-
CENTRAL WISCONSIN

CITY           SKY/WX    TMP DP  RH WIND       PRES   REMARKS
WAUSAU         CLOUDY    21  13  71 W12       30.18R WCI   9
MOSINEE        CLOUDY    19  16  86 NW13      30.20R WCI   7
MARSHFIELD     MOSUNNY   19  11  70 NW14      30.21R WCI   6
STEVENS POINT  CLOUDY    20  10  67 W10       30.20R WCI   8
WAUPACA        CLEAR     27  13  56 NW8       30.19R WCI  19
WAUTOMA        NOT AVBL
WISC RAPIDS    PTSUNNY   21  12  68 NW12      30.23R WCI   9
CAMP DOUGLAS   NOT AVBL
$$

WIZ011>013-019>022-031-037>040-048>050-172200-
NORTHEAST WISCONSIN

CITY           SKY/WX    TMP DP  RH WIND       PRES   REMARKS
ANTIGO         CLOUDY    21  14  74 NW12G18   30.13S WCI   9
SHAWANO        MOCLDY    28  16  59 W8        30.16S WCI  20
OCONTO         PTCLDY    26  17  66 W9        30.14R WCI  17
STURGEON BAY   CLOUDY    25  16  68 W13G21    30.13R WCI  13
GREEN BAY      CLEAR     27  16  63 NW17      30.16R WCI  14
MANITOWOC      NOT AVBL
APPLETON       PTCLDY    25  12  58 W13       30.17R WCI  13
CLINTONVILLE   MOCLDY    27  14  59 NW8G16    30.18R WCI  18
OSHKOSH        PTCLDY    25  14  63 W15G23    30.19R WCI  13
$$

WIZ032>034-041-042-053>061-172200-
SOUTHWEST WISCONSIN

CITY           SKY/WX    TMP DP  RH WIND       PRES   REMARKS
LA CROSSE      PTSUNNY   24  12  60 NW8       30.28S WCI  15
SPARTA         CLOUDY    21  13  73 NW9       30.27S WCI  10
VIROQUA        MOSUNNY   22  15  75 NW8       30.22S WCI  12
BOSCOBEL       MOSUNNY   26  14  60 VRB6      30.26F WCI  19
PRAIRIE DU CHI SUNNY     25  13  61 W8        30.26F WCI  16
PLATTEVILLE    PTSUNNY   23  16  75 CALM      30.23F
$$

WIZ056-057-062-063-064-067-068-172200-
SOUTH CENTRAL WISCONSIN

CITY           SKY/WX    TMP DP  RH WIND       PRES   REMARKS
REEDSBURG      CLOUDY    22  14  71 W8        30.23R WCI  13
BARABOO/DELLS  CLOUDY    23  14  69 NW7       30.22S WCI  15
LONE ROCK      NOT AVBL
MINERAL POINT  CLOUDY    23  18  80 NW8       30.22R WCI  14
MADISON        CLOUDY    24  15  68 NW8       30.22R WCI  15
MIDDLETON      CLOUDY    26  16  67 NW13      30.23R WCI  15
WATERTOWN      CLOUDY    24  16  70 NW9       30.21R WCI  15
MONROE         CLOUDY    23  19  86 NW5       30.20F WCI  17
JANESVILLE     CLOUDY    27  18  69 NW14      30.22R WCI  15
$$

WIZ051-052-058>065-066-070>072-172200-
SOUTHEAST WISCONSIN

CITY           SKY/WX    TMP DP  RH WIND       PRES   REMARKS
MILWAUKEE      PTSUNNY   26  14  60 NW17      30.19R WCI  13
WAUKESHA       CLOUDY    23  16  74 NW17      30.20R WCI   9
MILWAUKEE/TIMM CLOUDY    25  16  68 W14G23    30.20R WCI  13
RACINE         CLOUDY    27  16  63 W12G18    30.21R WCI  17
BURLINGTON     CLOUDY    24  16  69 W10       30.20R WCI  14
KENOSHA        PTSUNNY   26  17  68 W15       30.20R WCI  14
FOND DU LAC    CLOUDY    25  15  66 W16       30.19R WCI  12
SHEBOYGAN      PTCLDY    25  15  66 NW14      30.17R WCI  13
WEST BEND      CLOUDY    25  16  68 W14       30.18R WCI  13
JUNEAU         CLOUDY    23  16  74 W7        30.21R WCI  15
$$

LSZ147-162-172200-
LAKE SUPERIOR

STATION/POSITION TIME  TEMP    WIND        PRES    WAVE
                       AIR SEA DIR/SP/G            HT/PER
                 (UTC) (F)     (DEG/KT/KT) (MB)    (FT/S)
DEVILS ISLAND    2000   24      30/ 10/ 12 1025.8R
PORT WING        2040   24     330/  7/ 10 1025.4S
SAXON HARBOR     2000   26      20/ 10/ 13 1023.7R
$$

LMZ867-665-643>646-172200-
LAKE MICHIGAN

STATION/POSITION TIME  TEMP    WIND        PRES    WAVE
                       AIR SEA DIR/SP/G            HT/PER
                 (UTC) (F)     (DEG/KT/KT) (MB)    (FT/S)
CHAMBERS ISLAND  2000   28     250/  6/ 12 1019.3S
NORTHPORT PIER   2000   27     290/  9/ 17 1018.6R
SISTER BAY       2013          320/ 21/ 24   N/A
ALGOMA LAKESHORE 2014          330/  7/ 11   N/A
KEWAUNEE LAKESHO 2000   24     290/ 12/ 19 1019.4R
SHEBOYGAN LAKESH 2000   25 35  280/ 12/ 16 1022.4S
PORT WASHINGTON  2000   26     300/ 10/ 15 1022.7R
MILWAUKEE LAKESH 2000   26     280/ 12/ 17   N/A
KENOSHA   LAKESH 2000   26     280/ 11/ 18 1022.4S
$$

TC  - TEMPERATURE IN CELSIUS
VSB - VISIBILITY IN STATUTE MILES
WCI - WIND CHILL INDEX
HX  - HEAT INDEX




USA.gov is the U.S. government's official web portal to all federal, state and local government web resources and services.